Time,TemperatureF,DewpointF,PressureIn,WindDirection,WindDirectionDegrees,WindSpeedMPH,WindSpeedGustMPH,Humidity,HourlyPrecipIn,Conditions,Clouds,dailyrainin,SoftwareType,DateUTC
2013-08-16 00:01:00,63.7,56.0,29.98,SE,135,0.0,0.0,76,0.00,,,0.00,WUHU216HW,2013-08-16 05:01:00,
2013-08-16 00:06:00,63.5,55.8,29.99,SE,135,0.0,0.2,76,0.00,,,0.00,WUHU216HW,2013-08-16 05:06:00,
2013-08-16 00:11:00,63.5,55.8,29.99,SE,135,0.4,0.4,76,0.00,,,0.00,WUHU216HW,2013-08-16 05:11:00,
2013-08-16 00:19:00,63.4,55.6,29.99,SE,135,0.0,0.4,76,0.00,,,0.00,WUHU216HW,2013-08-16 05:19:00,
2013-08-16 00:24:00,63.2,55.4,29.98,ESE,113,0.0,0.7,76,0.00,,,0.00,WUHU216HW,2013-08-16 05:24:00,
2013-08-16 00:29:00,63.0,55.3,29.98,SE,135,0.0,0.7,76,0.00,,,0.00,WUHU216HW,2013-08-16 05:29:00,
2013-08-16 00:34:00,63.0,55.3,29.98,SE,135,0.2,0.4,76,0.00,,,0.00,WUHU216HW,2013-08-16 05:34:00,
2013-08-16 00:39:00,62.8,55.4,29.97,SE,135,1.6,1.6,77,0.00,,,0.00,WUHU216HW,2013-08-16 05:39:00,
2013-08-16 00:44:00,62.6,55.6,29.97,ESE,113,1.8,1.8,78,0.00,,,0.00,WUHU216HW,2013-08-16 05:44:00,
2013-08-16 00:49:00,62.6,55.3,29.97,ESE,113,0.4,1.8,77,0.00,,,0.00,WUHU216HW,2013-08-16 05:49:00,
2013-08-16 00:54:00,62.6,55.3,29.97,ESE,113,0.0,1.1,77,0.00,,,0.00,WUHU216HW,2013-08-16 05:54:00,
2013-08-16 00:59:00,62.5,55.1,29.96,SE,127,0.6,0.7,77,0.00,,,0.00,WUHU216HW,2013-08-16 05:59:00,
2013-08-16 01:04:00,62.5,55.1,29.97,SE,135,0.7,0.9,77,0.00,,,0.00,WUHU216HW,2013-08-16 06:04:00,
2013-08-16 01:09:00,62.5,55.1,29.97,SE,135,0.2,0.9,77,0.00,,,0.00,WUHU216HW,2013-08-16 06:09:00,
2013-08-16 01:14:00,62.3,55.3,29.97,ESE,113,0.2,0.7,78,0.00,,,0.00,WUHU216HW,2013-08-16 06:14:00,
2013-08-16 01:19:00,62.3,55.3,29.97,ESE,113,0.0,0.7,78,0.00,,,0.00,WUHU216HW,2013-08-16 06:19:00,
2013-08-16 01:24:00,62.1,55.2,29.97,ESE,113,0.0,0.0,78,0.00,,,0.00,WUHU216HW,2013-08-16 06:24:00,
2013-08-16 01:29:00,62.1,55.2,29.97,ESE,113,0.0,0.2,78,0.00,,,0.00,WUHU216HW,2013-08-16 06:29:00,
2013-08-16 01:34:00,61.9,55.0,29.96,ESE,113,0.9,0.9,78,0.00,,,0.00,WUHU216HW,2013-08-16 06:34:00,
2013-08-16 01:39:00,61.9,55.0,29.96,SE,135,0.2,0.9,78,0.00,,,0.00,WUHU216HW,2013-08-16 06:39:00,
2013-08-16 01:44:00,61.9,55.0,29.96,SE,135,0.0,0.4,78,0.00,,,0.00,WUHU216HW,2013-08-16 06:44:00,
2013-08-16 01:49:00,61.9,55.0,29.96,ESE,113,0.4,0.7,78,0.00,,,0.00,WUHU216HW,2013-08-16 06:49:00,
2013-08-16 01:54:00,61.9,55.0,29.96,SE,133,1.5,1.6,78,0.00,,,0.00,WUHU216HW,2013-08-16 06:54:00,
2013-08-16 01:59:00,61.7,54.8,29.96,ESE,122,1.3,2.0,78,0.00,,,0.00,WUHU216HW,2013-08-16 06:59:00,
2013-08-16 02:04:00,61.6,55.0,29.96,SE,135,1.1,2.0,79,0.00,,,0.00,WUHU216HW,2013-08-16 07:04:00,
2013-08-16 02:09:00,61.6,55.0,29.97,SE,135,1.1,1.8,79,0.00,,,0.00,WUHU216HW,2013-08-16 07:09:00,
2013-08-16 02:14:00,61.6,55.0,29.97,SE,135,1.1,1.1,79,0.00,,,0.00,WUHU216HW,2013-08-16 07:14:00,
2013-08-16 02:19:00,61.6,55.0,29.97,ESE,113,0.2,1.1,79,0.00,,,0.00,WUHU216HW,2013-08-16 07:19:00,
2013-08-16 02:24:00,61.6,55.0,29.97,ESE,113,0.0,0.4,79,0.00,,,0.00,WUHU216HW,2013-08-16 07:24:00,
2013-08-16 02:29:00,61.6,55.0,29.97,ESE,113,0.0,0.0,79,0.00,,,0.00,WUHU216HW,2013-08-16 07:29:00,
2013-08-16 02:34:00,61.4,54.8,29.96,ESE,113,0.0,0.0,79,0.00,,,0.00,WUHU216HW,2013-08-16 07:34:00,
2013-08-16 02:39:00,61.2,54.7,29.96,ESE,113,0.0,0.0,79,0.00,,,0.00,WUHU216HW,2013-08-16 07:39:00,
2013-08-16 02:44:00,61.2,54.7,29.96,ESE,113,0.0,0.0,79,0.00,,,0.00,WUHU216HW,2013-08-16 07:44:00,
2013-08-16 02:49:00,61.2,54.7,29.97,ESE,113,0.0,0.0,79,0.00,,,0.00,WUHU216HW,2013-08-16 07:49:00,
2013-08-16 02:54:00,61.0,54.6,29.97,ESE,113,0.0,0.0,79,0.00,,,0.00,WUHU216HW,2013-08-16 07:54:00,
2013-08-16 02:59:00,60.8,54.7,29.97,ESE,113,0.0,0.0,80,0.00,,,0.00,WUHU216HW,2013-08-16 07:59:00,
2013-08-16 03:04:00,60.8,54.7,29.97,ESE,113,0.0,0.0,80,0.00,,,0.00,WUHU216HW,2013-08-16 08:04:00,
2013-08-16 03:09:00,60.8,54.7,29.97,ESE,113,0.0,0.0,80,0.00,,,0.00,WUHU216HW,2013-08-16 08:09:00,
2013-08-16 03:14:00,60.7,54.9,29.97,ESE,113,0.0,0.0,81,0.00,,,0.00,WUHU216HW,2013-08-16 08:14:00,
2013-08-16 03:19:00,60.5,54.7,29.97,ESE,113,0.0,0.0,81,0.00,,,0.00,WUHU216HW,2013-08-16 08:19:00,
2013-08-16 03:24:00,60.3,54.6,29.97,ESE,113,0.0,0.0,81,0.00,,,0.00,WUHU216HW,2013-08-16 08:24:00,
2013-08-16 03:29:00,60.3,54.8,29.97,ESE,113,0.0,0.0,82,0.00,,,0.00,WUHU216HW,2013-08-16 08:29:00,
2013-08-16 03:34:00,60.3,54.8,29.97,ESE,113,0.0,0.0,82,0.00,,,0.00,WUHU216HW,2013-08-16 08:34:00,
2013-08-16 03:39:00,60.1,54.6,29.97,ESE,113,0.0,0.0,82,0.00,,,0.00,WUHU216HW,2013-08-16 08:39:00,
2013-08-16 03:44:00,60.1,54.6,29.97,ESE,113,0.0,0.0,82,0.00,,,0.00,WUHU216HW,2013-08-16 08:44:00,
2013-08-16 03:49:00,60.1,55.0,29.97,ESE,113,0.0,0.0,83,0.00,,,0.00,WUHU216HW,2013-08-16 08:49:00,
2013-08-16 03:54:00,60.1,55.0,29.97,ESE,113,0.0,0.0,83,0.00,,,0.00,WUHU216HW,2013-08-16 08:54:00,
2013-08-16 03:59:00,60.3,55.2,29.97,ESE,113,0.0,0.0,83,0.00,,,0.00,WUHU216HW,2013-08-16 08:59:00,
2013-08-16 04:04:00,60.3,55.2,29.96,SE,135,0.4,0.4,83,0.00,,,0.00,WUHU216HW,2013-08-16 09:04:00,
2013-08-16 04:09:00,60.3,54.8,29.96,SE,135,0.4,0.4,82,0.00,,,0.00,WUHU216HW,2013-08-16 09:09:00,
2013-08-16 04:14:00,60.3,54.8,29.96,ESE,108,0.4,1.1,82,0.00,,,0.00,WUHU216HW,2013-08-16 09:14:00,
2013-08-16 04:19:00,60.3,54.8,29.96,SE,135,0.9,1.6,82,0.00,,,0.00,WUHU216HW,2013-08-16 09:19:00,
2013-08-16 04:24:00,60.3,55.2,29.96,SE,135,0.7,1.6,83,0.00,,,0.00,WUHU216HW,2013-08-16 09:24:00,
2013-08-16 04:29:00,60.3,54.8,29.96,SE,135,0.4,0.7,82,0.00,,,0.00,WUHU216HW,2013-08-16 09:29:00,
2013-08-16 04:34:00,60.3,54.8,29.96,SE,135,0.9,0.9,82,0.00,,,0.00,WUHU216HW,2013-08-16 09:34:00,
2013-08-16 04:39:00,60.3,54.8,29.96,ESE,113,0.4,0.9,82,0.00,,,0.00,WUHU216HW,2013-08-16 09:39:00,
2013-08-16 04:44:00,60.3,54.8,29.96,SE,135,0.4,0.7,82,0.00,,,0.00,WUHU216HW,2013-08-16 09:44:00,
2013-08-16 04:49:00,60.3,54.8,29.97,SE,135,0.0,0.7,82,0.00,,,0.00,WUHU216HW,2013-08-16 09:49:00,
2013-08-16 04:54:00,60.3,54.8,29.97,ESE,113,0.0,0.0,82,0.00,,,0.00,WUHU216HW,2013-08-16 09:54:00,
2013-08-16 04:59:00,60.5,55.0,29.97,ESE,113,0.0,0.0,82,0.00,,,0.00,WUHU216HW,2013-08-16 09:59:00,
2013-08-16 05:04:00,60.5,55.0,29.97,ESE,113,0.0,0.0,82,0.00,,,0.00,WUHU216HW,2013-08-16 10:04:00,
2013-08-16 05:09:00,60.5,55.0,29.97,ESE,113,0.0,0.0,82,0.00,,,0.00,WUHU216HW,2013-08-16 10:09:00,
2013-08-16 05:14:00,60.3,54.8,29.97,ESE,113,0.0,0.0,82,0.00,,,0.00,WUHU216HW,2013-08-16 10:14:00,
2013-08-16 05:19:00,60.3,54.8,29.96,ESE,113,0.0,0.0,82,0.00,,,0.00,WUHU216HW,2013-08-16 10:19:00,
2013-08-16 05:24:00,60.1,54.6,29.97,ESE,113,0.0,0.0,82,0.00,,,0.00,WUHU216HW,2013-08-16 10:24:00,
2013-08-16 05:29:00,60.1,54.6,29.97,ESE,113,0.0,0.0,82,0.00,,,0.00,WUHU216HW,2013-08-16 10:29:00,
2013-08-16 05:34:00,60.1,55.0,29.97,SE,135,0.0,0.0,83,0.00,,,0.00,WUHU216HW,2013-08-16 10:34:00,
2013-08-16 05:39:00,60.1,55.0,29.97,ESE,113,0.2,0.2,83,0.00,,,0.00,WUHU216HW,2013-08-16 10:39:00,
2013-08-16 05:44:00,60.1,55.0,29.97,East,90,0.0,0.2,83,0.00,,,0.00,WUHU216HW,2013-08-16 10:44:00,
2013-08-16 05:49:00,59.9,54.8,29.97,SE,135,0.4,0.4,83,0.00,,,0.00,WUHU216HW,2013-08-16 10:49:00,
2013-08-16 05:54:00,60.1,55.0,29.97,SE,135,0.2,0.4,83,0.00,,,0.00,WUHU216HW,2013-08-16 10:54:00,
2013-08-16 05:59:00,60.1,55.0,29.97,ESE,118,0.8,1.1,83,0.00,,,0.00,WUHU216HW,2013-08-16 10:59:00,
2013-08-16 06:04:00,60.1,55.0,29.96,SE,135,0.7,1.1,83,0.00,,,0.00,WUHU216HW,2013-08-16 11:04:00,
2013-08-16 06:09:00,60.1,55.0,29.97,SE,135,0.1,1.1,83,0.00,,,0.00,WUHU216HW,2013-08-16 11:09:00,
2013-08-16 06:14:00,60.1,55.0,29.97,SE,135,0.0,1.1,83,0.00,,,0.00,WUHU216HW,2013-08-16 11:14:00,
2013-08-16 06:19:00,60.1,55.0,29.97,ESE,113,0.0,0.4,83,0.00,,,0.00,WUHU216HW,2013-08-16 11:19:00,
2013-08-16 06:24:00,60.1,55.0,29.98,ESE,113,0.2,0.4,83,0.00,,,0.00,WUHU216HW,2013-08-16 11:24:00,
2013-08-16 06:29:00,60.1,55.0,29.98,ESE,113,0.0,0.4,83,0.00,,,0.00,WUHU216HW,2013-08-16 11:29:00,
2013-08-16 06:34:00,60.1,55.0,29.98,ESE,113,0.0,0.2,83,0.00,,,0.00,WUHU216HW,2013-08-16 11:34:00,
2013-08-16 06:39:00,60.1,55.0,29.98,SE,135,0.2,0.2,83,0.00,,,0.00,WUHU216HW,2013-08-16 11:39:00,
2013-08-16 06:44:00,60.1,55.0,29.98,SE,135,0.4,0.9,83,0.00,,,0.00,WUHU216HW,2013-08-16 11:44:00,
2013-08-16 06:49:00,59.9,54.8,29.98,SE,135,0.2,0.9,83,0.00,,,0.00,WUHU216HW,2013-08-16 11:49:00,
2013-08-16 06:54:00,60.1,55.0,29.98,ESE,113,0.7,0.7,83,0.00,,,0.00,WUHU216HW,2013-08-16 11:54:00,
2013-08-16 06:59:00,60.1,55.0,29.98,ESE,113,0.4,0.7,83,0.00,,,0.00,WUHU216HW,2013-08-16 11:59:00,
2013-08-16 07:04:00,60.3,55.2,29.98,SE,135,0.7,0.7,83,0.00,,,0.00,WUHU216HW,2013-08-16 12:04:00,
2013-08-16 07:09:00,60.3,55.2,29.98,East,90,1.6,1.6,83,0.00,,,0.00,WUHU216HW,2013-08-16 12:09:00,
2013-08-16 07:14:00,60.5,55.4,29.98,ESE,120,0.3,1.8,83,0.00,,,0.00,WUHU216HW,2013-08-16 12:14:00,
2013-08-16 07:19:00,60.5,55.4,29.99,SE,135,1.8,1.8,83,0.00,,,0.00,WUHU216HW,2013-08-16 12:19:00,
2013-08-16 07:24:00,60.5,55.4,29.99,SE,135,2.0,2.0,83,0.00,,,0.00,WUHU216HW,2013-08-16 12:24:00,
2013-08-16 07:29:00,60.7,55.5,29.99,ESE,113,0.4,2.0,83,0.00,,,0.00,WUHU216HW,2013-08-16 12:29:00,
2013-08-16 07:34:00,60.8,56.0,29.99,ESE,117,1.0,1.8,84,0.00,,,0.00,WUHU216HW,2013-08-16 12:34:00,
2013-08-16 07:39:00,60.8,56.0,30.00,ESE,113,1.1,1.8,84,0.00,,,0.00,WUHU216HW,2013-08-16 12:39:00,
2013-08-16 07:44:00,60.8,56.0,30.00,ESE,113,0.7,1.8,84,0.00,,,0.00,WUHU216HW,2013-08-16 12:44:00,
2013-08-16 07:49:00,60.8,56.0,30.00,ESE,113,1.7,1.8,84,0.00,,,0.00,WUHU216HW,2013-08-16 12:49:00,
2013-08-16 07:54:00,60.8,56.0,30.00,East,90,0.8,1.8,84,0.00,,,0.00,WUHU216HW,2013-08-16 12:54:00,
2013-08-16 07:59:00,61.0,56.2,30.00,ESE,113,1.6,1.8,84,0.00,,,0.00,WUHU216HW,2013-08-16 12:59:00,
2013-08-16 08:04:00,61.2,56.3,30.01,SE,135,1.3,1.8,84,0.00,,,0.00,WUHU216HW,2013-08-16 13:04:00,
2013-08-16 08:09:00,61.4,56.5,30.01,ESE,103,1.4,1.6,84,0.00,,,0.00,WUHU216HW,2013-08-16 13:09:00,
2013-08-16 08:14:00,61.7,56.9,30.01,ESE,113,1.0,1.6,84,0.00,,,0.00,WUHU216HW,2013-08-16 13:14:00,
2013-08-16 08:19:00,62.3,57.3,30.01,SSE,158,0.7,2.2,84,0.00,,,0.00,WUHU216HW,2013-08-16 13:19:00,
2013-08-16 08:24:00,62.6,57.3,30.01,East,90,2.2,3.1,83,0.00,,,0.00,WUHU216HW,2013-08-16 13:24:00,
2013-08-16 08:29:00,63.0,57.7,30.01,East,90,1.1,3.1,83,0.00,,,0.00,WUHU216HW,2013-08-16 13:29:00,
2013-08-16 08:34:00,63.0,57.4,30.01,SE,135,0.4,1.8,82,0.00,,,0.00,WUHU216HW,2013-08-16 13:34:00,
2013-08-16 08:39:00,63.5,58.0,30.01,SSE,158,0.9,1.6,82,0.00,,,0.00,WUHU216HW,2013-08-16 13:39:00,
2013-08-16 08:44:00,63.9,58.3,30.01,ESE,108,1.0,1.6,82,0.00,,,0.00,WUHU216HW,2013-08-16 13:44:00,
2013-08-16 08:49:00,64.3,58.7,30.02,ESE,121,2.0,2.5,82,0.00,,,0.00,WUHU216HW,2013-08-16 13:49:00,
2013-08-16 08:54:00,64.4,58.9,30.01,ESE,113,1.1,2.5,82,0.00,,,0.00,WUHU216HW,2013-08-16 13:54:00,
2013-08-16 08:59:00,64.6,59.1,30.01,East,90,1.3,1.8,82,0.00,,,0.00,WUHU216HW,2013-08-16 13:59:00,
2013-08-16 09:04:00,64.8,59.2,30.01,East,90,0.4,1.3,82,0.00,,,0.00,WUHU216HW,2013-08-16 14:04:00,
2013-08-16 09:09:00,65.0,59.3,30.01,ESE,113,0.1,0.9,82,0.00,,,0.00,WUHU216HW,2013-08-16 14:09:00,
2013-08-16 09:14:00,65.2,59.2,30.01,West,270,1.1,1.3,81,0.00,,,0.00,WUHU216HW,2013-08-16 14:14:00,
2013-08-16 09:19:00,65.5,59.6,30.01,ESE,117,0.4,1.3,81,0.00,,,0.00,WUHU216HW,2013-08-16 14:19:00,
2013-08-16 09:24:00,65.7,59.8,30.01,SE,142,0.3,1.3,81,0.00,,,0.00,WUHU216HW,2013-08-16 14:24:00,
2013-08-16 09:29:00,66.1,60.1,30.01,SE,135,1.3,2.0,81,0.00,,,0.00,WUHU216HW,2013-08-16 14:29:00,
2013-08-16 09:34:00,66.6,60.3,30.01,East,90,0.6,2.0,80,0.00,,,0.00,WUHU216HW,2013-08-16 14:34:00,
2013-08-16 09:39:00,67.5,61.2,30.01,WSW,248,0.0,1.8,80,0.00,,,0.00,WUHU216HW,2013-08-16 14:39:00,
2013-08-16 09:44:00,68.0,61.0,30.01,ESE,113,1.3,2.2,78,0.00,,,0.00,WUHU216HW,2013-08-16 14:44:00,
2013-08-16 09:49:00,68.4,61.3,30.01,ESE,107,0.8,2.2,78,0.00,,,0.00,WUHU216HW,2013-08-16 14:49:00,
2013-08-16 09:54:00,68.6,61.1,30.01,SSE,164,0.6,1.3,77,0.00,,,0.00,WUHU216HW,2013-08-16 14:54:00,
2013-08-16 09:59:00,69.1,61.2,30.01,SE,135,1.3,2.0,76,0.00,,,0.00,WUHU216HW,2013-08-16 14:59:00,
2013-08-16 10:04:00,69.7,61.3,30.01,SW,225,0.9,2.0,75,0.00,,,0.00,WUHU216HW,2013-08-16 15:04:00,
2013-08-16 10:09:00,70.2,61.8,30.01,SE,135,0.9,1.1,75,0.00,,,0.00,WUHU216HW,2013-08-16 15:09:00,
2013-08-16 10:14:00,70.7,62.0,30.01,SW,230,1.9,2.9,74,0.00,,,0.00,WUHU216HW,2013-08-16 15:14:00,
2013-08-16 10:19:00,71.1,61.2,30.02,SW,225,2.5,2.9,71,0.00,,,0.00,WUHU216HW,2013-08-16 15:19:00,
2013-08-16 10:24:00,71.1,61.6,30.02,West,270,1.1,2.5,72,0.00,,,0.00,WUHU216HW,2013-08-16 15:24:00,
2013-08-16 10:29:00,71.3,61.4,30.02,ESE,113,1.1,1.8,71,0.00,,,0.00,WUHU216HW,2013-08-16 15:29:00,
2013-08-16 10:34:00,71.5,61.6,30.02,NNE,23,0.3,1.1,71,0.00,,,0.00,WUHU216HW,2013-08-16 15:34:00,
2013-08-16 10:39:00,71.8,61.6,30.02,SW,225,1.1,2.5,70,0.00,,,0.00,WUHU216HW,2013-08-16 15:39:00,
2013-08-16 10:44:00,72.2,62.3,30.02,SE,140,1.6,2.5,71,0.00,,,0.00,WUHU216HW,2013-08-16 15:44:00,
2013-08-16 10:49:00,72.7,62.8,30.02,North,0,0.4,2.5,71,0.00,,,0.00,WUHU216HW,2013-08-16 15:49:00,
2013-08-16 10:54:00,72.5,60.9,30.02,West,270,1.0,2.2,67,0.00,,,0.00,WUHU216HW,2013-08-16 15:54:00,
2013-08-16 10:59:00,72.4,61.7,30.02,SE,135,0.9,1.1,69,0.00,,,0.00,WUHU216HW,2013-08-16 15:59:00,
2013-08-16 11:04:00,72.7,62.5,30.02,SE,135,1.8,1.8,70,0.00,,,0.00,WUHU216HW,2013-08-16 16:04:00,
2013-08-16 11:09:00,73.1,61.5,30.02,SE,135,0.1,1.8,67,0.00,,,0.00,WUHU216HW,2013-08-16 16:09:00,
2013-08-16 11:14:00,73.1,61.9,30.02,East,87,0.9,1.6,68,0.00,,,0.00,WUHU216HW,2013-08-16 16:14:00,
2013-08-16 11:19:00,73.6,61.6,30.02,SE,128,1.7,2.2,66,0.00,,,0.00,WUHU216HW,2013-08-16 16:19:00,
2013-08-16 11:24:00,73.4,60.9,30.01,NNE,23,0.9,2.2,65,0.00,,,0.00,WUHU216HW,2013-08-16 16:24:00,
2013-08-16 11:29:00,72.9,60.8,30.02,NE,36,1.6,2.5,66,0.00,,,0.00,WUHU216HW,2013-08-16 16:29:00,
2013-08-16 11:34:00,72.5,60.5,30.01,North,0,2.8,3.8,66,0.00,,,0.00,WUHU216HW,2013-08-16 16:34:00,
2013-08-16 11:39:00,73.1,59.7,30.01,ESE,113,3.4,3.8,63,0.00,,,0.00,WUHU216HW,2013-08-16 16:39:00,
2013-08-16 11:44:00,73.4,60.0,30.01,SE,131,1.1,3.4,63,0.00,,,0.00,WUHU216HW,2013-08-16 16:44:00,
2013-08-16 11:49:00,73.8,61.3,30.01,NE,53,0.6,1.8,65,0.00,,,0.00,WUHU216HW,2013-08-16 16:49:00,
2013-08-16 11:54:00,73.4,60.9,30.01,SE,127,2.2,3.4,65,0.00,,,0.00,WUHU216HW,2013-08-16 16:54:00,
2013-08-16 11:59:00,73.8,60.9,30.01,ESE,113,3.1,3.4,64,0.00,,,0.00,WUHU216HW,2013-08-16 16:59:00,
2013-08-16 12:04:00,74.3,60.5,30.01,SE,135,2.1,4.0,62,0.00,,,0.00,WUHU216HW,2013-08-16 17:04:00,
2013-08-16 12:09:00,74.3,60.9,30.01,NNE,23,1.1,4.0,63,0.00,,,0.00,WUHU216HW,2013-08-16 17:09:00,
2013-08-16 12:14:00,73.8,59.5,30.01,SE,135,1.6,2.5,61,0.00,,,0.00,WUHU216HW,2013-08-16 17:14:00,
2013-08-16 12:19:00,73.3,60.3,30.01,NNW,338,1.1,1.6,64,0.00,,,0.00,WUHU216HW,2013-08-16 17:19:00,
2013-08-16 12:24:00,73.1,60.6,30.01,North,0,1.8,1.8,65,0.00,,,0.00,WUHU216HW,2013-08-16 17:24:00,
2013-08-16 12:29:00,72.9,59.9,30.01,North,0,2.2,2.2,64,0.00,,,0.00,WUHU216HW,2013-08-16 17:29:00,
2013-08-16 12:34:00,72.7,59.8,30.02,NNE,23,3.6,3.6,64,0.00,,,0.00,WUHU216HW,2013-08-16 17:34:00,
2013-08-16 12:39:00,72.9,59.5,30.01,NE,45,1.1,3.6,63,0.00,,,0.00,WUHU216HW,2013-08-16 17:39:00,
2013-08-16 12:44:00,73.4,60.0,30.01,ESE,113,2.0,3.6,63,0.00,,,0.00,WUHU216HW,2013-08-16 17:44:00,
2013-08-16 12:49:00,73.8,60.9,30.01,North,0,1.5,2.2,64,0.00,,,0.00,WUHU216HW,2013-08-16 17:49:00,
2013-08-16 12:54:00,73.8,60.4,30.01,NNW,338,1.3,1.8,63,0.00,,,0.00,WUHU216HW,2013-08-16 17:54:00,
2013-08-16 12:59:00,73.6,61.1,30.01,North,0,1.1,1.8,65,0.00,,,0.00,WUHU216HW,2013-08-16 17:59:00,
2013-08-16 13:04:00,73.4,59.1,30.01,ESE,119,1.3,1.8,61,0.00,,,0.00,WUHU216HW,2013-08-16 18:04:00,
2013-08-16 13:09:00,73.4,60.0,30.01,North,0,0.6,4.9,63,0.00,,,0.00,WUHU216HW,2013-08-16 18:09:00,
2013-08-16 13:14:00,73.3,59.4,30.01,West,270,0.3,4.9,62,0.00,,,0.00,WUHU216HW,2013-08-16 18:14:00,
2013-08-16 13:19:00,73.3,59.9,30.01,NNE,23,3.1,3.1,63,0.00,,,0.00,WUHU216HW,2013-08-16 18:19:00,
2013-08-16 13:24:00,73.1,59.7,30.01,North,4,0.6,3.1,63,0.00,,,0.00,WUHU216HW,2013-08-16 18:24:00,
2013-08-16 13:29:00,73.3,59.9,30.01,ENE,68,0.8,2.0,63,0.00,,,0.00,WUHU216HW,2013-08-16 18:29:00,
2013-08-16 13:34:00,73.3,60.8,30.01,North,0,0.7,1.3,65,0.00,,,0.00,WUHU216HW,2013-08-16 18:34:00,
2013-08-16 13:39:00,73.4,60.5,30.00,North,0,1.8,1.8,64,0.00,,,0.00,WUHU216HW,2013-08-16 18:39:00,
2013-08-16 13:44:00,73.4,60.5,30.01,North,0,1.5,1.8,64,0.00,,,0.00,WUHU216HW,2013-08-16 18:44:00,
2013-08-16 13:49:00,73.4,60.9,30.00,NW,323,1.0,1.8,65,0.00,,,0.00,WUHU216HW,2013-08-16 18:49:00,
2013-08-16 13:54:00,73.3,60.8,30.00,North,352,1.0,1.6,65,0.00,,,0.00,WUHU216HW,2013-08-16 18:54:00,
2013-08-16 13:59:00,73.1,60.6,30.00,West,270,0.7,2.0,65,0.00,,,0.00,WUHU216HW,2013-08-16 18:59:00,
2013-08-16 14:04:00,73.1,60.6,30.00,North,0,0.2,2.0,65,0.00,,,0.00,WUHU216HW,2013-08-16 19:04:00,
2013-08-16 14:09:00,73.3,61.2,30.00,NNE,12,1.0,1.1,66,0.00,,,0.00,WUHU216HW,2013-08-16 19:09:00,
2013-08-16 14:14:00,73.4,60.9,30.00,NNE,23,1.6,1.6,65,0.00,,,0.00,WUHU216HW,2013-08-16 19:14:00,
2013-08-16 14:19:00,73.4,60.5,30.00,North,0,1.1,1.6,64,0.00,,,0.00,WUHU216HW,2013-08-16 19:19:00,
2013-08-16 14:24:00,73.4,60.9,30.00,NNE,23,4.0,4.0,65,0.00,,,0.00,WUHU216HW,2013-08-16 19:24:00,
2013-08-16 14:29:00,73.3,60.3,30.00,NE,45,0.7,4.0,64,0.00,,,0.00,WUHU216HW,2013-08-16 19:29:00,
2013-08-16 14:34:00,73.1,60.6,30.00,NNE,23,0.2,2.2,65,0.00,,,0.00,WUHU216HW,2013-08-16 19:34:00,
2013-08-16 14:39:00,72.9,60.4,30.00,ENE,68,0.3,2.2,65,0.00,,,0.00,WUHU216HW,2013-08-16 19:39:00,
2013-08-16 14:44:00,72.7,60.2,30.00,East,90,1.1,1.1,65,0.00,,,0.00,WUHU216HW,2013-08-16 19:44:00,
2013-08-16 14:49:00,72.5,60.5,30.00,NNE,23,1.8,2.5,66,0.00,,,0.00,WUHU216HW,2013-08-16 19:49:00,
2013-08-16 14:54:00,72.5,60.9,30.00,North,0,0.4,2.5,67,0.00,,,0.00,WUHU216HW,2013-08-16 19:54:00,
2013-08-16 14:59:00,72.5,60.9,30.00,North,0,1.0,1.8,67,0.00,,,0.00,WUHU216HW,2013-08-16 19:59:00,
2013-08-16 15:04:00,72.4,61.2,29.99,NNW,338,0.9,1.8,68,0.00,,,0.00,WUHU216HW,2013-08-16 20:04:00,
2013-08-16 15:09:00,72.4,60.3,29.99,North,0,1.6,3.6,66,0.00,,,0.00,WUHU216HW,2013-08-16 20:09:00,
2013-08-16 15:14:00,72.2,60.2,30.00,NNW,345,3.0,4.0,66,0.00,,,0.00,WUHU216HW,2013-08-16 20:14:00,
2013-08-16 15:19:00,72.0,60.4,29.99,NNE,23,0.7,4.0,67,0.00,,,0.00,WUHU216HW,2013-08-16 20:19:00,
2013-08-16 15:24:00,71.8,60.3,29.99,NNE,23,1.5,2.2,67,0.00,,,0.00,WUHU216HW,2013-08-16 20:24:00,
2013-08-16 15:29:00,71.8,60.3,30.00,North,5,2.3,3.8,67,0.00,,,0.00,WUHU216HW,2013-08-16 20:29:00,
2013-08-16 15:34:00,71.8,59.9,30.00,ESE,113,1.1,3.8,66,0.00,,,0.00,WUHU216HW,2013-08-16 20:34:00,
2013-08-16 15:39:00,72.0,60.0,30.00,NNE,23,0.7,1.6,66,0.00,,,0.00,WUHU216HW,2013-08-16 20:39:00,
2013-08-16 15:44:00,72.2,60.2,30.00,NNE,23,2.5,3.8,66,0.00,,,0.00,WUHU216HW,2013-08-16 20:44:00,
2013-08-16 15:49:00,72.4,60.3,30.00,North,0,1.3,3.8,66,0.00,,,0.00,WUHU216HW,2013-08-16 20:49:00,
2013-08-16 15:54:00,72.4,60.8,30.00,North,0,0.2,3.1,67,0.00,,,0.00,WUHU216HW,2013-08-16 20:54:00,
2013-08-16 15:59:00,72.4,60.3,30.00,NW,323,1.1,3.4,66,0.00,,,0.00,WUHU216HW,2013-08-16 20:59:00,
2013-08-16 16:04:00,72.2,60.2,30.00,North,0,0.9,3.4,66,0.00,,,0.00,WUHU216HW,2013-08-16 21:04:00,
2013-08-16 16:09:00,72.0,60.0,30.00,NE,45,1.6,1.6,66,0.00,,,0.00,WUHU216HW,2013-08-16 21:09:00,
2013-08-16 16:14:00,71.8,59.9,30.00,North,0,0.9,2.5,66,0.00,,,0.00,WUHU216HW,2013-08-16 21:14:00,
2013-08-16 16:19:00,71.8,59.9,30.00,NNE,29,0.6,2.5,66,0.00,,,0.00,WUHU216HW,2013-08-16 21:19:00,
2013-08-16 16:24:00,71.8,59.9,30.01,North,0,2.9,2.9,66,0.00,,,0.00,WUHU216HW,2013-08-16 21:24:00,
2013-08-16 16:29:00,72.0,60.0,30.01,NNE,23,2.9,2.9,66,0.00,,,0.00,WUHU216HW,2013-08-16 21:29:00,
2013-08-16 16:34:00,72.0,60.0,30.01,North,0,1.6,2.9,66,0.00,,,0.00,WUHU216HW,2013-08-16 21:34:00,
2013-08-16 16:39:00,72.2,60.2,30.01,North,7,1.1,2.5,66,0.00,,,0.00,WUHU216HW,2013-08-16 21:39:00,
2013-08-16 16:44:00,72.0,60.0,30.01,West,270,2.9,2.9,66,0.00,,,0.00,WUHU216HW,2013-08-16 21:44:00,
2013-08-16 16:49:00,72.0,60.0,30.01,SE,135,0.9,2.9,66,0.00,,,0.00,WUHU216HW,2013-08-16 21:49:00,
2013-08-16 16:54:00,71.8,60.3,30.01,North,0,0.4,1.8,67,0.00,,,0.00,WUHU216HW,2013-08-16 21:54:00,
2013-08-16 16:59:00,71.6,59.7,30.01,ENE,68,1.0,3.4,66,0.00,,,0.00,WUHU216HW,2013-08-16 21:59:00,
2013-08-16 17:04:00,71.5,59.5,30.01,North,0,0.4,3.4,66,0.00,,,0.00,WUHU216HW,2013-08-16 22:04:00,
2013-08-16 17:09:00,71.3,59.3,30.01,NE,53,1.0,2.9,66,0.00,,,0.00,WUHU216HW,2013-08-16 22:09:00,
2013-08-16 17:14:00,71.1,59.6,30.01,North,0,1.1,2.9,67,0.00,,,0.00,WUHU216HW,2013-08-16 22:14:00,
2013-08-16 17:19:00,70.9,59.4,30.01,North,0,1.6,1.8,67,0.00,,,0.00,WUHU216HW,2013-08-16 22:19:00,
2013-08-16 17:24:00,70.9,59.0,30.01,North,0,2.5,2.5,66,0.00,,,0.00,WUHU216HW,2013-08-16 22:24:00,
2013-08-16 17:29:00,70.7,58.8,30.01,NE,40,0.9,2.5,66,0.00,,,0.00,WUHU216HW,2013-08-16 22:29:00,
2013-08-16 17:34:00,70.7,58.8,30.01,NW,325,0.8,1.8,66,0.00,,,0.00,WUHU216HW,2013-08-16 22:34:00,
2013-08-16 17:39:00,70.6,58.6,30.01,SE,135,2.0,2.0,66,0.00,,,0.00,WUHU216HW,2013-08-16 22:39:00,
2013-08-16 17:44:00,70.7,58.8,30.01,ENE,75,0.9,2.0,66,0.00,,,0.00,WUHU216HW,2013-08-16 22:44:00,
2013-08-16 17:49:00,70.6,58.2,30.01,SE,137,1.2,1.6,65,0.00,,,0.00,WUHU216HW,2013-08-16 22:49:00,
2013-08-16 17:54:00,70.6,58.2,30.01,SSE,163,1.3,1.8,65,0.00,,,0.00,WUHU216HW,2013-08-16 22:54:00,
2013-08-16 17:59:00,70.6,58.6,30.01,ENE,74,1.4,2.0,66,0.00,,,0.00,WUHU216HW,2013-08-16 22:59:00,
2013-08-16 18:04:00,70.4,58.9,30.01,NNE,23,1.3,3.4,67,0.00,,,0.00,WUHU216HW,2013-08-16 23:04:00,
2013-08-16 18:09:00,70.6,59.1,30.01,North,0,1.6,3.4,67,0.00,,,0.00,WUHU216HW,2013-08-16 23:09:00,
2013-08-16 18:14:00,70.6,59.1,30.01,NNE,23,0.2,1.6,67,0.00,,,0.00,WUHU216HW,2013-08-16 23:14:00,
2013-08-16 18:19:00,70.4,58.9,30.01,North,0,2.7,2.9,67,0.00,,,0.00,WUHU216HW,2013-08-16 23:19:00,
2013-08-16 18:24:00,70.2,58.7,30.01,NNE,23,2.5,2.9,67,0.00,,,0.00,WUHU216HW,2013-08-16 23:24:00,
2013-08-16 18:29:00,70.2,58.7,30.01,East,90,2.2,2.5,67,0.00,,,0.00,WUHU216HW,2013-08-16 23:29:00,
2013-08-16 18:34:00,69.8,58.3,30.01,North,0,1.3,2.5,67,0.00,,,0.00,WUHU216HW,2013-08-16 23:34:00,
2013-08-16 18:39:00,69.8,58.3,30.01,North,0,2.8,3.6,67,0.00,,,0.00,WUHU216HW,2013-08-16 23:39:00,
2013-08-16 18:44:00,69.7,58.1,30.01,North,0,0.8,3.6,67,0.00,,,0.00,WUHU216HW,2013-08-16 23:44:00,
2013-08-16 18:49:00,69.7,58.1,30.01,NNW,338,0.7,2.7,67,0.00,,,0.00,WUHU216HW,2013-08-16 23:49:00,
2013-08-16 18:54:00,69.5,58.4,30.01,NE,45,0.4,2.5,68,0.00,,,0.00,WUHU216HW,2013-08-16 23:54:00,
2013-08-16 18:59:00,69.5,58.4,30.01,NNE,23,0.7,3.4,68,0.00,,,0.00,WUHU216HW,2013-08-16 23:59:00,
2013-08-16 19:04:00,69.5,58.4,30.01,NE,45,0.9,3.4,68,0.00,,,0.00,WUHU216HW,2013-08-17 00:04:00,
2013-08-16 19:09:00,69.5,58.4,30.01,North,0,1.8,1.8,68,0.00,,,0.00,WUHU216HW,2013-08-17 00:09:00,
2013-08-16 19:14:00,69.3,58.2,30.01,North,0,2.0,2.0,68,0.00,,,0.00,WUHU216HW,2013-08-17 00:14:00,
2013-08-16 19:19:00,69.3,58.2,30.01,NNE,23,1.3,2.0,68,0.00,,,0.00,WUHU216HW,2013-08-17 00:19:00,
2013-08-16 19:24:00,69.1,58.5,30.01,North,0,0.7,1.3,69,0.00,,,0.00,WUHU216HW,2013-08-17 00:24:00,
2013-08-16 19:29:00,69.1,58.5,30.01,North,0,0.4,1.6,69,0.00,,,0.00,WUHU216HW,2013-08-17 00:29:00,
2013-08-16 19:34:00,69.1,58.5,30.01,North,0,0.1,1.6,69,0.00,,,0.00,WUHU216HW,2013-08-17 00:34:00,
2013-08-16 19:39:00,68.9,58.3,30.01,NNE,23,1.8,1.8,69,0.00,,,0.00,WUHU216HW,2013-08-17 00:39:00,
2013-08-16 19:44:00,68.8,58.1,30.01,NE,45,0.3,1.8,69,0.00,,,0.00,WUHU216HW,2013-08-17 00:44:00,
2013-08-16 19:49:00,68.8,58.1,30.01,North,0,0.9,0.9,69,0.00,,,0.00,WUHU216HW,2013-08-17 00:49:00,
2013-08-16 19:54:00,68.6,58.1,30.01,NNE,23,0.7,0.9,69,0.00,,,0.00,WUHU216HW,2013-08-17 00:54:00,
2013-08-16 19:59:00,68.4,57.9,30.01,North,0,0.6,1.1,69,0.00,,,0.00,WUHU216HW,2013-08-17 00:59:00,
2013-08-16 20:04:00,68.4,57.9,30.01,North,0,0.2,1.1,69,0.00,,,0.00,WUHU216HW,2013-08-17 01:04:00,
2013-08-16 20:09:00,68.2,57.7,30.01,North,0,0.0,0.9,69,0.00,,,0.00,WUHU216HW,2013-08-17 01:09:00,
2013-08-16 20:14:00,68.0,57.5,30.01,North,0,0.4,0.7,69,0.00,,,0.00,WUHU216HW,2013-08-17 01:14:00,
2013-08-16 20:19:00,68.0,58.0,30.01,North,0,0.4,0.7,70,0.00,,,0.00,WUHU216HW,2013-08-17 01:19:00,
2013-08-16 20:24:00,67.9,57.8,30.01,North,0,0.0,0.4,70,0.00,,,0.00,WUHU216HW,2013-08-17 01:24:00,
2013-08-16 20:29:00,67.7,57.6,30.01,NNE,23,0.7,0.7,70,0.00,,,0.00,WUHU216HW,2013-08-17 01:29:00,
2013-08-16 20:34:00,67.5,57.4,30.01,NNE,23,0.2,0.7,70,0.00,,,0.00,WUHU216HW,2013-08-17 01:34:00,
2013-08-16 20:39:00,67.3,57.2,30.01,NNE,23,0.0,0.4,70,0.00,,,0.00,WUHU216HW,2013-08-17 01:39:00,
2013-08-16 20:44:00,67.0,56.9,30.01,NNE,23,0.1,0.4,70,0.00,,,0.00,WUHU216HW,2013-08-17 01:44:00,
2013-08-16 20:49:00,66.8,57.1,30.01,NNE,23,0.0,0.2,71,0.00,,,0.00,WUHU216HW,2013-08-17 01:49:00,
2013-08-16 20:54:00,66.6,56.9,30.02,NNE,23,0.0,0.0,71,0.00,,,0.00,WUHU216HW,2013-08-17 01:54:00,
2013-08-16 20:59:00,66.2,56.9,30.02,NNE,23,0.0,0.0,72,0.00,,,0.00,WUHU216HW,2013-08-17 01:59:00,
2013-08-16 21:04:00,66.1,56.8,30.02,NNE,23,0.0,0.0,72,0.00,,,0.00,WUHU216HW,2013-08-17 02:04:00,
2013-08-16 21:09:00,65.9,57.0,30.02,NNE,23,0.0,0.0,73,0.00,,,0.00,WUHU216HW,2013-08-17 02:09:00,
2013-08-16 21:14:00,65.5,56.6,30.02,NNE,23,0.0,0.0,73,0.00,,,0.00,WUHU216HW,2013-08-17 02:14:00,
2013-08-16 21:19:00,65.3,56.4,30.03,NNE,23,0.0,0.0,73,0.00,,,0.00,WUHU216HW,2013-08-17 02:19:00,
2013-08-16 21:24:00,65.2,56.7,30.03,NNE,23,0.0,0.0,74,0.00,,,0.00,WUHU216HW,2013-08-17 02:24:00,
2013-08-16 21:29:00,64.8,56.4,30.03,NNE,23,0.0,0.0,74,0.00,,,0.00,WUHU216HW,2013-08-17 02:29:00,
2013-08-16 21:34:00,64.6,56.2,30.03,NNE,23,0.0,0.0,74,0.00,,,0.00,WUHU216HW,2013-08-17 02:34:00,
2013-08-16 21:39:00,64.4,56.3,30.03,NNE,23,0.0,0.0,75,0.00,,,0.00,WUHU216HW,2013-08-17 02:39:00,
2013-08-16 21:44:00,64.3,56.2,30.03,NNE,23,0.0,0.0,75,0.00,,,0.00,WUHU216HW,2013-08-17 02:44:00,
2013-08-16 21:49:00,64.1,56.3,30.03,NNE,23,0.0,0.0,76,0.00,,,0.00,WUHU216HW,2013-08-17 02:49:00,
2013-08-16 21:54:00,63.9,56.2,30.03,NNE,23,0.0,0.0,76,0.00,,,0.00,WUHU216HW,2013-08-17 02:54:00,
2013-08-16 21:59:00,63.7,56.3,30.03,NNE,23,0.0,0.0,77,0.00,,,0.00,WUHU216HW,2013-08-17 02:59:00,
2013-08-16 22:04:00,63.5,56.2,30.03,NNE,23,0.0,0.0,77,0.00,,,0.00,WUHU216HW,2013-08-17 03:04:00,
2013-08-16 22:09:00,63.4,55.6,30.03,NNE,23,0.0,0.0,76,0.00,,,0.00,WUHU216HW,2013-08-17 03:09:00,
2013-08-16 22:14:00,63.2,55.8,30.03,NNE,23,0.0,0.0,77,0.00,,,0.00,WUHU216HW,2013-08-17 03:14:00,
2013-08-16 22:19:00,63.0,55.6,30.03,NNE,23,0.0,0.0,77,0.00,,,0.00,WUHU216HW,2013-08-17 03:19:00,
2013-08-16 22:24:00,63.0,56.0,30.03,NNE,23,0.0,0.0,78,0.00,,,0.00,WUHU216HW,2013-08-17 03:24:00,
2013-08-16 22:29:00,62.8,55.8,30.04,NNE,23,0.0,0.0,78,0.00,,,0.00,WUHU216HW,2013-08-17 03:29:00,
2013-08-16 22:34:00,62.6,55.6,30.03,NNE,23,0.0,0.0,78,0.00,,,0.00,WUHU216HW,2013-08-17 03:34:00,
2013-08-16 22:39:00,62.5,55.8,30.03,NNE,23,0.0,0.0,79,0.00,,,0.00,WUHU216HW,2013-08-17 03:39:00,
2013-08-16 22:44:00,62.3,55.6,30.03,NNE,23,0.0,0.0,79,0.00,,,0.00,WUHU216HW,2013-08-17 03:44:00,
2013-08-16 22:49:00,62.3,55.6,30.03,NNE,23,0.0,0.0,79,0.00,,,0.00,WUHU216HW,2013-08-17 03:49:00,
2013-08-16 22:54:00,62.1,55.5,30.03,NNE,23,0.0,0.0,79,0.00,,,0.00,WUHU216HW,2013-08-17 03:54:00,
2013-08-16 22:59:00,61.9,55.4,30.03,NNE,23,0.0,0.0,79,0.00,,,0.00,WUHU216HW,2013-08-17 03:59:00,
2013-08-16 23:01:00,61.9,55.7,30.04,NNE,23,0.0,0.0,80,0.00,,,0.00,WUHU216HW,2013-08-17 04:01:00,
2013-08-16 23:06:00,61.9,55.7,30.04,NNE,23,0.0,0.0,80,0.00,,,0.00,WUHU216HW,2013-08-17 04:06:00,
2013-08-16 23:11:00,61.7,55.5,30.04,NNE,23,0.0,0.0,80,0.00,,,0.00,WUHU216HW,2013-08-17 04:11:00,
2013-08-16 23:16:00,61.6,55.7,30.04,NNE,23,0.0,0.0,81,0.00,,,0.00,WUHU216HW,2013-08-17 04:16:00,
2013-08-16 23:21:00,61.6,55.7,30.04,NNE,23,0.0,0.0,81,0.00,,,0.00,WUHU216HW,2013-08-17 04:21:00,
2013-08-16 23:26:00,61.4,55.5,30.04,NNE,23,0.0,0.0,81,0.00,,,0.00,WUHU216HW,2013-08-17 04:26:00,
2013-08-16 23:31:00,61.2,55.4,30.04,NNE,23,0.0,0.0,81,0.00,,,0.00,WUHU216HW,2013-08-17 04:31:00,
2013-08-16 23:36:00,61.2,55.7,30.04,NNE,23,0.0,0.0,82,0.00,,,0.00,WUHU216HW,2013-08-17 04:36:00,
2013-08-16 23:41:00,61.0,55.5,30.04,NNE,23,0.0,0.0,82,0.00,,,0.00,WUHU216HW,2013-08-17 04:41:00,
2013-08-16 23:46:00,61.0,55.5,30.04,NNE,23,0.0,0.0,82,0.00,,,0.00,WUHU216HW,2013-08-17 04:46:00,
2013-08-16 23:51:00,60.8,55.4,30.04,NNE,23,0.0,0.0,82,0.00,,,0.00,WUHU216HW,2013-08-17 04:51:00,
2013-08-16 23:56:00,60.8,55.7,30.04,NNE,23,0.0,0.0,83,0.00,,,0.00,WUHU216HW,2013-08-17 04:56:00,